• In Uzbekistan
  • List of Countries
  • For 7 days
  • Water Temperature
  • Weather Map
  • Weather Widgets
  • user-avatar
    Login

    Hourly Weather Cardiff

    Today, 14 November, Thursday

    Time Temperature Precipitation Wind Pressure Humidity
    00:00 +3°C° 0.3 mm 3 mps 739 mmHg 92%
    01:00 +3°C° 0 mm 3 mps 739 mmHg 92%
    02:00 +3°C° 0 mm 3 mps 739 mmHg 93%
    03:00 +3°C° 0 mm 3 mps 739 mmHg 93%
    04:00 +2°C° 0 mm 3 mps 740 mmHg 94%
    05:00 +2°C° 0 mm 3 mps 741 mmHg 94%
    06:00 +1°C° 0 mm 4 mps 741 mmHg 94%
    07:00 +3°C° 0.9 mm 4 mps 742 mmHg 95%
    08:00 +3°C° 0.9 mm 4 mps 743 mmHg 96%
    09:00 +2°C° 0.9 mm 5 mps 744 mmHg 96%
    10:00 +3°C° 2.5 mm 6 mps 744 mmHg 96%
    11:00 +3°C° 2.5 mm 7 mps 745 mmHg 95%
    12:00 +2°C° 2.5 mm 9 mps 745 mmHg 95%
    13:00 +2°C° 2.3 mm 10 mps 746 mmHg 94%
    14:00 +2°C° 2.3 mm 10 mps 746 mmHg 94%
    15:00 +1°C° 2.3 mm 11 mps 747 mmHg 94%
    16:00 +1°C° 0.9 mm 11 mps 748 mmHg 94%
    17:00 +1°C° 0.9 mm 11 mps 748 mmHg 94%
    18:00 +1°C° 0.9 mm 11 mps 749 mmHg 94%
    19:00 +1°C° 0.6 mm 10 mps 750 mmHg 94%
    20:00 +1°C° 0.6 mm 10 mps 750 mmHg 94%
    21:00 +1°C° 0.6 mm 9 mps 751 mmHg 94%
    22:00 +1°C° 0.3 mm 9 mps 751 mmHg 93%
    23:00 +2°C° 0.3 mm 8 mps 752 mmHg 93%

    Tomorrow, 15 November, Friday

    Time Temperature Precipitation Wind Pressure Humidity
    00:00 +3°C° 0.3 mm 7 mps 752 mmHg 93%
    01:00 +3°C° 0.1 mm 7 mps 752 mmHg 92%
    02:00 +2°C° 0.1 mm 8 mps 752 mmHg 92%
    03:00 +2°C° 0.1 mm 8 mps 753 mmHg 91%
    04:00 +2°C° 0 mm 7 mps 753 mmHg 92%
    05:00 +2°C° 0 mm 7 mps 753 mmHg 92%
    06:00 +1°C° 0 mm 6 mps 753 mmHg 92%
    07:00 +2°C° 0 mm 6 mps 754 mmHg 92%
    08:00 +3°C° 0 mm 7 mps 754 mmHg 91%
    09:00 +4°C° 0 mm 7 mps 755 mmHg 90%
    10:00 +4°C° 0 mm 8 mps 755 mmHg 88%
    11:00 +5°C° 0 mm 8 mps 755 mmHg 86%
    12:00 +6°C° 0 mm 9 mps 755 mmHg 84%
    13:00 +6°C° 0 mm 8 mps 755 mmHg 84%
    14:00 +6°C° 0 mm 8 mps 754 mmHg 83%
    15:00 +6°C° 0 mm 8 mps 754 mmHg 83%
    16:00 +5°C° 0 mm 8 mps 754 mmHg 84%
    17:00 +5°C° 0 mm 8 mps 755 mmHg 85%
    18:00 +4°C° 0 mm 8 mps 755 mmHg 86%
    19:00 +4°C° 0 mm 8 mps 755 mmHg 86%
    20:00 +4°C° 0 mm 8 mps 755 mmHg 86%
    21:00 +2°C° 0 mm 8 mps 755 mmHg 87%
    22:00 +2°C° 0 mm 8 mps 755 mmHg 86%
    23:00 +2°C° 0 mm 8 mps 756 mmHg 86%

    Day after tomorrow, 16 November, Saturday

    Time Temperature Precipitation Wind Pressure Humidity
    00:00 +2°C° 0 mm 8 mps 756 mmHg 85%
    01:00 +2°C° 0 mm 8 mps 756 mmHg 86%
    02:00 +2°C° 0 mm 8 mps 755 mmHg 86%
    03:00 +3°C° 0 mm 7 mps 755 mmHg 86%
    04:00 +3°C° 0 mm 7 mps 755 mmHg 87%
    05:00 +2°C° 0 mm 6 mps 755 mmHg 88%
    06:00 +2°C° 0 mm 5 mps 755 mmHg 89%
    07:00 +2°C° 0 mm 5 mps 756 mmHg 89%
    08:00 +4°C° 0 mm 4 mps 756 mmHg 89%
    09:00 +4°C° 0 mm 4 mps 756 mmHg 88%
    10:00 +5°C° 0 mm 3 mps 756 mmHg 86%
    11:00 +7°C° 0 mm 3 mps 756 mmHg 83%
    12:00 +8°C° 0 mm 3 mps 756 mmHg 81%
    13:00 +8°C° 0 mm 2 mps 756 mmHg 82%
    14:00 +7°C° 0 mm 2 mps 756 mmHg 84%
    15:00 +7°C° 0 mm 2 mps 756 mmHg 86%
    16:00 +8°C° 0 mm 1 mps 756 mmHg 87%
    17:00 +7°C° 0 mm 1 mps 756 mmHg 89%
    18:00 +6°C° 0 mm 1 mps 756 mmHg 90%
    19:00 +6°C° 0 mm 1 mps 756 mmHg 90%
    20:00 +5°C° 0 mm 0 mps 757 mmHg 90%
    21:00 +5°C° 0 mm 0 mps 757 mmHg 89%
    22:00 +6°C° 0 mm 1 mps 757 mmHg 90%
    23:00 +6°C° 0 mm 1 mps 757 mmHg 90%

    17 November, Sunday

    Time Temperature Precipitation Wind Pressure Humidity
    00:00 +6°C° 0 mm 1 mps 757 mmHg 91%
    01:00 +6°C° 0 mm 1 mps 757 mmHg 90%
    02:00 +6°C° 0 mm 1 mps 757 mmHg 90%
    03:00 +6°C° 0 mm 1 mps 757 mmHg 90%
    04:00 +6°C° 0 mm 1 mps 757 mmHg 89%
    05:00 +6°C° 0 mm 1 mps 757 mmHg 89%
    06:00 +4°C° 0 mm 2 mps 757 mmHg 89%
    07:00 +5°C° 0 mm 2 mps 757 mmHg 88%
    08:00 +5°C° 0 mm 2 mps 758 mmHg 87%
    09:00 +5°C° 0 mm 2 mps 758 mmHg 85%
    10:00 +6°C° 0 mm 2 mps 758 mmHg 84%
    11:00 +6°C° 0 mm 2 mps 759 mmHg 82%
    12:00 +7°C° 0 mm 3 mps 759 mmHg 81%
    13:00 +7°C° 0 mm 3 mps 759 mmHg 82%
    14:00 +7°C° 0 mm 3 mps 759 mmHg 83%
    15:00 +7°C° 0 mm 3 mps 759 mmHg 84%
    16:00 +5°C° 0 mm 3 mps 759 mmHg 86%
    17:00 +4°C° 0 mm 3 mps 760 mmHg 89%
    18:00 +3°C° 0 mm 3 mps 760 mmHg 91%
    19:00 +3°C° 0 mm 3 mps 760 mmHg 91%
    20:00 +3°C° 0 mm 4 mps 760 mmHg 90%
    21:00 +3°C° 0 mm 4 mps 760 mmHg 90%
    22:00 +1°C° 0 mm 4 mps 760 mmHg 89%
    23:00 +1°C° 0 mm 4 mps 760 mmHg 88%

    18 November, Monday

    Time Temperature Precipitation Wind Pressure Humidity
    00:00 0°C° 0 mm 4 mps 760 mmHg 88%
    01:00 +1°C° 0 mm 3 mps 760 mmHg 87%
    02:00 +1°C° 0 mm 3 mps 760 mmHg 87%
    03:00 +1°C° 0 mm 3 mps 760 mmHg 87%
    04:00 +1°C° 0 mm 3 mps 760 mmHg 86%
    05:00 0°C° 0 mm 3 mps 760 mmHg 86%
    06:00 0°C° 0 mm 3 mps 760 mmHg 86%
    07:00 +1°C° 0 mm 3 mps 760 mmHg 84%
    08:00 +2°C° 0 mm 2 mps 760 mmHg 83%
    09:00 +3°C° 0 mm 2 mps 760 mmHg 81%
    10:00 +4°C° 0 mm 2 mps 759 mmHg 75%
    11:00 +6°C° 0 mm 1 mps 759 mmHg 69%
    12:00 +7°C° 0 mm 1 mps 759 mmHg 64%
    13:00 +7°C° 0 mm 1 mps 758 mmHg 66%
    14:00 +7°C° 0 mm 1 mps 758 mmHg 69%
    15:00 +7°C° 0 mm 1 mps 757 mmHg 72%
    16:00 +5°C° 0 mm 1 mps 757 mmHg 74%
    17:00 +4°C° 0 mm 1 mps 757 mmHg 77%
    18:00 +3°C° 0 mm 1 mps 757 mmHg 80%
    19:00 +3°C° 0 mm 1 mps 757 mmHg 80%
    20:00 +3°C° 0 mm 1 mps 757 mmHg 80%
    21:00 +2°C° 0 mm 1 mps 756 mmHg 80%
    22:00 +2°C° 0 mm 2 mps 756 mmHg 79%
    23:00 +2°C° 0 mm 2 mps 755 mmHg 79%

    19 November, Tuesday

    Time Temperature Precipitation Wind Pressure Humidity
    00:00 +2°C° 0 mm 2 mps 755 mmHg 79%
    01:00 +1°C° 0 mm 3 mps 754 mmHg 80%
    02:00 +1°C° 0 mm 3 mps 753 mmHg 81%
    03:00 +1°C° 0 mm 3 mps 752 mmHg 82%
    04:00 +1°C° 0.1 mm 4 mps 751 mmHg 83%
    05:00 +3°C° 0.1 mm 4 mps 750 mmHg 85%
    06:00 +2°C° 0.1 mm 5 mps 749 mmHg 87%
    07:00 +3°C° 0.3 mm 6 mps 749 mmHg 89%
    08:00 +3°C° 0.3 mm 6 mps 748 mmHg 92%
    09:00 +4°C° 0.3 mm 7 mps 748 mmHg 94%
    10:00 +5°C° 0.7 mm 6 mps 747 mmHg 93%
    11:00 +5°C° 0.7 mm 6 mps 747 mmHg 92%
    12:00 +7°C° 0.7 mm 6 mps 746 mmHg 90%
    13:00 +7°C° 0 mm 6 mps 746 mmHg 87%
    14:00 +7°C° 0 mm 6 mps 746 mmHg 84%
    15:00 +7°C° 0 mm 6 mps 746 mmHg 81%
    16:00 +5°C° 0 mm 6 mps 746 mmHg 83%
    17:00 +5°C° 0 mm 5 mps 746 mmHg 85%
    18:00 +4°C° 0 mm 4 mps 746 mmHg 87%
    19:00 +4°C° 0 mm 4 mps 746 mmHg 88%
    20:00 +4°C° 0 mm 4 mps 746 mmHg 88%
    21:00 +4°C° 0 mm 4 mps 746 mmHg 88%
    22:00 +4°C° 0 mm 4 mps 746 mmHg 88%
    23:00 +4°C° 0 mm 4 mps 745 mmHg 88%
    Show more